Year,Month,Day,Hour,Minute,Value (Times are PST for temperature in C)
2012,08,24,00,00,12.30
2012,08,24,00,01,12.30
2012,08,24,00,02,12.30
2012,08,24,00,03,12.40
2012,08,24,00,04,12.50
2012,08,24,00,05,12.70
2012,08,24,00,06,12.80
2012,08,24,00,07,12.80
2012,08,24,00,08,12.90
2012,08,24,00,09,13.00
2012,08,24,00,10,13.10
2012,08,24,00,11,13.30
2012,08,24,00,12,13.30
2012,08,24,00,13,13.40
2012,08,24,00,14,13.40
2012,08,24,00,15,13.50
2012,08,24,00,16,13.60
2012,08,24,00,17,13.70
2012,08,24,00,18,13.80
2012,08,24,00,19,13.80
2012,08,24,00,20,13.90
2012,08,24,00,21,14.00
2012,08,24,00,22,14.00
2012,08,24,00,23,14.10
2012,08,24,00,24,14.20
2012,08,24,00,25,14.20
2012,08,24,00,26,14.30
2012,08,24,00,27,14.40
2012,08,24,00,28,14.40
2012,08,24,00,29,14.50
2012,08,24,00,30,14.60
2012,08,24,00,31,14.60
2012,08,24,00,32,14.70
2012,08,24,00,33,14.70
2012,08,24,00,34,14.80
2012,08,24,00,35,14.90
2012,08,24,00,36,15.00
2012,08,24,00,37,15.10
2012,08,24,00,38,15.20
2012,08,24,00,39,15.30
2012,08,24,00,40,15.30
2012,08,24,00,41,15.40
2012,08,24,00,42,15.40
2012,08,24,00,43,15.50
2012,08,24,00,44,15.60
2012,08,24,00,45,15.60
2012,08,24,00,46,15.60
2012,08,24,00,47,15.70
2012,08,24,00,48,15.70
2012,08,24,00,49,15.70
2012,08,24,00,50,15.70
2012,08,24,00,51,15.70
2012,08,24,00,52,15.70
2012,08,24,00,53,15.70
2012,08,24,00,54,15.70
2012,08,24,00,55,15.70
2012,08,24,00,56,15.60
2012,08,24,00,57,15.60
2012,08,24,00,58,15.60
2012,08,24,00,59,15.60
2012,08,24,01,00,15.60
2012,08,24,01,01,15.60
2012,08,24,01,02,15.60
2012,08,24,01,03,15.60
2012,08,24,01,04,15.60
2012,08,24,01,05,15.60
2012,08,24,01,06,15.60
2012,08,24,01,07,15.60
2012,08,24,01,08,15.50
2012,08,24,01,09,15.50
2012,08,24,01,10,15.50
2012,08,24,01,11,15.50
2012,08,24,01,12,15.50
2012,08,24,01,13,15.50
2012,08,24,01,14,15.40
2012,08,24,01,15,15.40
2012,08,24,01,16,15.40
2012,08,24,01,17,15.40
2012,08,24,01,18,15.40
2012,08,24,01,19,15.40
2012,08,24,01,20,15.40
2012,08,24,01,21,15.40
2012,08,24,01,22,15.40
2012,08,24,01,23,15.40
2012,08,24,01,24,15.40
2012,08,24,01,25,15.40
2012,08,24,01,26,15.40
2012,08,24,01,27,15.40
2012,08,24,01,28,15.40
2012,08,24,01,29,15.40
2012,08,24,01,30,15.40
2012,08,24,01,31,15.40
2012,08,24,01,32,15.40
2012,08,24,01,33,15.40
2012,08,24,01,34,15.40
2012,08,24,01,35,15.40
2012,08,24,01,36,15.40
2012,08,24,01,37,15.40
2012,08,24,01,38,15.40
2012,08,24,01,39,15.40
2012,08,24,01,40,15.40
2012,08,24,01,41,15.40
2012,08,24,01,42,15.40
2012,08,24,01,43,15.40
2012,08,24,01,44,15.40
2012,08,24,01,45,15.40
2012,08,24,01,46,15.40
2012,08,24,01,47,15.40
2012,08,24,01,48,15.40
2012,08,24,01,49,15.40
2012,08,24,01,50,15.40
2012,08,24,01,51,15.40
2012,08,24,01,52,15.40
2012,08,24,01,53,15.40
2012,08,24,01,54,15.30
2012,08,24,01,55,15.30
2012,08,24,01,56,15.30
2012,08,24,01,57,15.30
2012,08,24,01,58,15.30
2012,08,24,01,59,15.30
2012,08,24,02,00,15.30
2012,08,24,02,01,15.30
2012,08,24,02,02,15.30
2012,08,24,02,03,15.30
2012,08,24,02,04,15.30
2012,08,24,02,05,15.30
2012,08,24,02,06,15.30
2012,08,24,02,07,15.30
2012,08,24,02,08,15.30
2012,08,24,02,09,15.20
2012,08,24,02,10,15.20
2012,08,24,02,11,15.20
2012,08,24,02,12,15.20
2012,08,24,02,13,15.20
2012,08,24,02,14,15.20
2012,08,24,02,15,15.20
2012,08,24,02,16,15.20
2012,08,24,02,17,15.20
2012,08,24,02,18,15.20
2012,08,24,02,19,15.10
2012,08,24,02,20,15.10
2012,08,24,02,21,15.10
2012,08,24,02,22,15.10
2012,08,24,02,23,15.00
2012,08,24,02,24,15.00
2012,08,24,02,25,15.00
2012,08,24,02,26,14.90
2012,08,24,02,27,14.90
2012,08,24,02,28,14.90
2012,08,24,02,29,14.90
2012,08,24,02,30,14.80
2012,08,24,02,31,14.80
2012,08,24,02,32,14.80
2012,08,24,02,33,14.80
2012,08,24,02,34,14.80
2012,08,24,02,35,14.80
2012,08,24,02,36,14.70
2012,08,24,02,37,14.70
2012,08,24,02,38,14.70
2012,08,24,02,39,14.70
2012,08,24,02,40,14.70
2012,08,24,02,41,14.70
2012,08,24,02,42,14.70
2012,08,24,02,43,14.60
2012,08,24,02,44,14.60
2012,08,24,02,45,14.60
2012,08,24,02,46,14.50
2012,08,24,02,47,14.50
2012,08,24,02,48,14.40
2012,08,24,02,49,14.40
2012,08,24,02,50,14.30
2012,08,24,02,51,14.30
2012,08,24,02,52,14.30
2012,08,24,02,53,14.30
2012,08,24,02,54,14.30
2012,08,24,02,55,14.20
2012,08,24,02,56,14.20
2012,08,24,02,57,14.20
2012,08,24,02,58,14.10
2012,08,24,02,59,14.10
2012,08,24,03,00,14.00
2012,08,24,03,01,14.00
2012,08,24,03,02,14.00
2012,08,24,03,03,13.90
2012,08,24,03,04,13.90
2012,08,24,03,05,13.90
2012,08,24,03,06,13.80
2012,08,24,03,07,13.80
2012,08,24,03,08,13.80
2012,08,24,03,09,13.80
2012,08,24,03,10,13.70
2012,08,24,03,11,13.70
2012,08,24,03,12,13.70
2012,08,24,03,13,13.70
2012,08,24,03,14,13.60
2012,08,24,03,15,13.60
2012,08,24,03,16,13.60
2012,08,24,03,17,13.60
2012,08,24,03,18,13.60
2012,08,24,03,19,13.50
2012,08,24,03,20,13.50
2012,08,24,03,21,13.50
2012,08,24,03,22,13.40
2012,08,24,03,23,13.40
2012,08,24,03,24,13.40
2012,08,24,03,25,13.40
2012,08,24,03,26,13.40
2012,08,24,03,27,13.30
2012,08,24,03,28,13.30
2012,08,24,03,29,13.30
2012,08,24,03,30,13.30
2012,08,24,03,31,13.20
2012,08,24,03,32,13.20
2012,08,24,03,33,13.10
2012,08,24,03,34,13.10
2012,08,24,03,35,13.10
2012,08,24,03,36,13.00
2012,08,24,03,37,13.00
2012,08,24,03,38,12.90
2012,08,24,03,39,12.90
2012,08,24,03,40,12.90
2012,08,24,03,41,12.80
2012,08,24,03,42,12.80
2012,08,24,03,43,12.80
2012,08,24,03,44,12.80
2012,08,24,03,45,12.70
2012,08,24,03,46,12.60
2012,08,24,03,47,12.60
2012,08,24,03,48,12.60
2012,08,24,03,49,12.50
2012,08,24,03,50,12.50
2012,08,24,03,51,12.50
2012,08,24,03,52,12.50
2012,08,24,03,53,12.50
2012,08,24,03,54,12.40
2012,08,24,03,55,12.40
2012,08,24,03,56,12.40
2012,08,24,03,57,12.40
2012,08,24,03,58,12.40
2012,08,24,03,59,12.40
2012,08,24,04,00,12.40
2012,08,24,04,01,12.40
2012,08,24,04,02,12.40
2012,08,24,04,03,12.40
2012,08,24,04,04,12.40
2012,08,24,04,05,12.40
2012,08,24,04,06,12.40
2012,08,24,04,07,12.30
2012,08,24,04,08,12.30
2012,08,24,04,09,12.20
2012,08,24,04,10,12.20
2012,08,24,04,11,12.10
2012,08,24,04,12,12.00
2012,08,24,04,13,12.00
2012,08,24,04,14,11.90
2012,08,24,04,15,11.90
2012,08,24,04,16,11.80
2012,08,24,04,17,11.70
2012,08,24,04,18,11.70
2012,08,24,04,19,11.60
2012,08,24,04,20,11.60
2012,08,24,04,21,11.50
2012,08,24,04,22,11.40
2012,08,24,04,23,11.40
2012,08,24,04,24,11.40
2012,08,24,04,25,11.30
2012,08,24,04,26,11.30
2012,08,24,04,27,11.30
2012,08,24,04,28,11.20
2012,08,24,04,29,11.20
2012,08,24,04,30,11.10
2012,08,24,04,31,11.10
2012,08,24,04,32,11.10
2012,08,24,04,33,11.00
2012,08,24,04,34,11.00
2012,08,24,04,35,10.90
2012,08,24,04,36,10.90
2012,08,24,04,37,10.90
2012,08,24,04,38,10.90
2012,08,24,04,39,10.80
2012,08,24,04,40,10.80
2012,08,24,04,41,10.80
2012,08,24,04,42,10.80
2012,08,24,04,43,10.80
2012,08,24,04,44,10.80
2012,08,24,04,45,10.80
2012,08,24,04,46,10.70
2012,08,24,04,47,10.70
2012,08,24,04,48,10.70
2012,08,24,04,49,10.70
2012,08,24,04,50,10.60
2012,08,24,04,51,10.60
2012,08,24,04,52,10.60
2012,08,24,04,53,10.50
2012,08,24,04,54,10.50
2012,08,24,04,55,10.50
2012,08,24,04,56,10.50
2012,08,24,04,57,10.50
2012,08,24,04,58,10.50
2012,08,24,04,59,10.50
2012,08,24,05,00,10.50
2012,08,24,05,01,10.60
2012,08,24,05,02,10.60
2012,08,24,05,03,10.60
2012,08,24,05,04,10.60
2012,08,24,05,05,10.50
2012,08,24,05,06,10.50
2012,08,24,05,07,10.40
2012,08,24,05,08,10.40
2012,08,24,05,09,10.40
2012,08,24,05,10,10.30
2012,08,24,05,11,10.30
2012,08,24,05,12,10.30
2012,08,24,05,13,10.30
2012,08,24,05,14,10.20
2012,08,24,05,15,10.20
2012,08,24,05,16,10.20
2012,08,24,05,17,10.30
2012,08,24,05,18,10.30
2012,08,24,05,19,10.30
2012,08,24,05,20,10.30
2012,08,24,05,21,10.30
2012,08,24,05,22,10.30
2012,08,24,05,23,10.30
2012,08,24,05,24,10.30
2012,08,24,05,25,10.30
2012,08,24,05,26,10.20
2012,08,24,05,27,10.20
2012,08,24,05,28,10.20
2012,08,24,05,29,10.20
2012,08,24,05,30,10.10
2012,08,24,05,31,10.10
2012,08,24,05,32,10.10
2012,08,24,05,33,10.10
2012,08,24,05,34,10.10
2012,08,24,05,35,10.00
2012,08,24,05,36,10.00
2012,08,24,05,37,10.00
2012,08,24,05,38,10.00
2012,08,24,05,39,10.00
2012,08,24,05,40,10.00
2012,08,24,05,41,10.00
2012,08,24,05,42,10.00
2012,08,24,05,43,10.00
2012,08,24,05,44,9.90
2012,08,24,05,45,9.90
2012,08,24,05,46,9.90
2012,08,24,05,47,9.90
2012,08,24,05,48,9.90
2012,08,24,05,49,9.90
2012,08,24,05,50,9.90
2012,08,24,05,51,9.90
2012,08,24,05,52,9.90
2012,08,24,05,53,9.90
2012,08,24,05,54,9.90
2012,08,24,05,55,9.80
2012,08,24,05,56,9.80
2012,08,24,05,57,9.80
2012,08,24,05,58,9.80
2012,08,24,05,59,9.80
2012,08,24,06,00,9.70
2012,08,24,06,01,9.70
2012,08,24,06,02,9.70
2012,08,24,06,03,9.70
2012,08,24,06,04,9.70
2012,08,24,06,05,9.70
2012,08,24,06,06,9.70
2012,08,24,06,07,9.70
2012,08,24,06,08,9.70
2012,08,24,06,09,9.70
2012,08,24,06,10,9.70
2012,08,24,06,11,9.70
2012,08,24,06,12,9.60
2012,08,24,06,13,9.70
2012,08,24,06,14,9.70
2012,08,24,06,15,9.80
2012,08,24,06,16,9.80
2012,08,24,06,17,9.80
2012,08,24,06,18,9.90
2012,08,24,06,19,9.90
2012,08,24,06,20,10.00
2012,08,24,06,21,10.00
2012,08,24,06,22,10.00
2012,08,24,06,23,10.00
2012,08,24,06,24,10.00
2012,08,24,06,25,9.90
2012,08,24,06,26,9.90
2012,08,24,06,27,9.90
2012,08,24,06,28,9.90
2012,08,24,06,29,9.90
2012,08,24,06,30,9.90
2012,08,24,06,31,9.90
2012,08,24,06,32,9.90
2012,08,24,06,33,9.90
2012,08,24,06,34,10.00
2012,08,24,06,35,10.00
2012,08,24,06,36,10.10
2012,08,24,06,37,10.10
2012,08,24,06,38,10.20
2012,08,24,06,39,10.20
2012,08,24,06,40,10.30
2012,08,24,06,41,10.30
2012,08,24,06,42,10.30
2012,08,24,06,43,10.30
2012,08,24,06,44,10.30
2012,08,24,06,45,10.30
2012,08,24,06,46,10.30
2012,08,24,06,47,10.40
2012,08,24,06,48,10.40
2012,08,24,06,49,10.40
2012,08,24,06,50,10.40
2012,08,24,06,51,10.40
2012,08,24,06,52,10.50
2012,08,24,06,53,10.50
2012,08,24,06,54,10.60
2012,08,24,06,55,10.60
2012,08,24,06,56,10.60
2012,08,24,06,57,10.60
2012,08,24,06,58,10.70
2012,08,24,06,59,10.70
2012,08,24,07,00,10.80
2012,08,24,07,01,10.90
2012,08,24,07,02,11.00
2012,08,24,07,03,11.10
2012,08,24,07,04,11.10
2012,08,24,07,05,11.20
2012,08,24,07,06,11.30
2012,08,24,07,07,11.30
2012,08,24,07,08,11.40
2012,08,24,07,09,11.40
2012,08,24,07,10,11.50
2012,08,24,07,11,11.60
2012,08,24,07,12,11.70
2012,08,24,07,13,11.80
2012,08,24,07,14,11.80
2012,08,24,07,15,11.90
2012,08,24,07,16,12.00
2012,08,24,07,17,12.00
2012,08,24,07,18,12.10
2012,08,24,07,19,12.20
2012,08,24,07,20,12.20
2012,08,24,07,21,12.30
2012,08,24,07,22,12.30
2012,08,24,07,23,12.40
2012,08,24,07,24,12.40
2012,08,24,07,25,12.50
2012,08,24,07,26,12.60
2012,08,24,07,27,12.60
2012,08,24,07,28,12.70
2012,08,24,07,29,12.70
2012,08,24,07,30,12.80
2012,08,24,07,31,12.80
2012,08,24,07,32,12.90
2012,08,24,07,33,13.00
2012,08,24,07,34,13.10
2012,08,24,07,35,13.10
2012,08,24,07,36,13.20
2012,08,24,07,37,13.20
2012,08,24,07,38,13.30
2012,08,24,07,39,13.40
2012,08,24,07,40,13.40
2012,08,24,07,41,13.50
2012,08,24,07,42,13.50
2012,08,24,07,43,13.60
2012,08,24,07,44,13.70
2012,08,24,07,45,13.70
2012,08,24,07,46,13.70
2012,08,24,07,47,13.80
2012,08,24,07,48,13.80
2012,08,24,07,49,13.90
2012,08,24,07,50,13.90
2012,08,24,07,51,14.00
2012,08,24,07,52,14.10
2012,08,24,07,53,14.10
2012,08,24,07,54,14.20
2012,08,24,07,55,14.20
2012,08,24,07,56,14.30
2012,08,24,07,57,14.30
2012,08,24,07,58,14.40
2012,08,24,07,59,14.40
2012,08,24,08,00,14.40
2012,08,24,08,01,14.50
2012,08,24,08,02,14.50
2012,08,24,08,03,14.60
2012,08,24,08,04,14.60
2012,08,24,08,05,14.60
2012,08,24,08,06,14.70
2012,08,24,08,07,14.70
2012,08,24,08,08,14.70
2012,08,24,08,09,14.80
2012,08,24,08,10,14.80
2012,08,24,08,11,14.80
2012,08,24,08,12,14.80
2012,08,24,08,13,14.90
2012,08,24,08,14,14.90
2012,08,24,08,15,14.90
2012,08,24,08,16,15.00
2012,08,24,08,17,15.00
2012,08,24,08,18,15.00
2012,08,24,08,19,15.00
2012,08,24,08,20,15.10
2012,08,24,08,21,15.10
2012,08,24,08,22,15.10
2012,08,24,08,23,15.20
2012,08,24,08,24,15.20
2012,08,24,08,25,15.20
2012,08,24,08,26,15.20
2012,08,24,08,27,15.30
2012,08,24,08,28,15.30
2012,08,24,08,29,15.30
2012,08,24,08,30,15.40
2012,08,24,08,31,15.40
2012,08,24,08,32,15.40
2012,08,24,08,33,15.40
2012,08,24,08,34,15.40
2012,08,24,08,35,15.40
2012,08,24,08,36,15.50
2012,08,24,08,37,15.50
2012,08,24,08,38,15.50
2012,08,24,08,39,15.50
2012,08,24,08,40,15.60
2012,08,24,08,41,15.60
2012,08,24,08,42,15.70
2012,08,24,08,43,15.70
2012,08,24,08,44,15.70
2012,08,24,08,45,15.70
2012,08,24,08,46,15.70
2012,08,24,08,47,15.70
2012,08,24,08,48,15.70
2012,08,24,08,49,15.70
2012,08,24,08,50,15.80
2012,08,24,08,51,15.80
2012,08,24,08,52,15.90
2012,08,24,08,53,15.90
2012,08,24,08,54,16.00
2012,08,24,08,55,16.00
2012,08,24,08,56,16.10
2012,08,24,08,57,16.10
2012,08,24,08,58,16.10
2012,08,24,08,59,16.20
2012,08,24,09,00,16.20
2012,08,24,09,01,16.20
2012,08,24,09,02,16.20
2012,08,24,09,03,16.30
2012,08,24,09,04,16.30
2012,08,24,09,05,16.30
2012,08,24,09,06,16.40
2012,08,24,09,07,16.40
2012,08,24,09,08,16.40
2012,08,24,09,09,16.40
2012,08,24,09,10,16.50
2012,08,24,09,11,16.50
2012,08,24,09,12,16.60
2012,08,24,09,13,16.60
2012,08,24,09,14,16.60
2012,08,24,09,15,16.60
2012,08,24,09,16,16.60
2012,08,24,09,17,16.70
2012,08,24,09,18,16.70
2012,08,24,09,19,16.60
2012,08,24,09,20,16.70
2012,08,24,09,21,16.70
2012,08,24,09,22,16.70
2012,08,24,09,23,16.70
2012,08,24,09,24,16.70
2012,08,24,09,25,16.70
2012,08,24,09,26,16.70
2012,08,24,09,27,16.80
2012,08,24,09,28,16.80
2012,08,24,09,29,16.80
2012,08,24,09,30,16.90
2012,08,24,09,31,16.90
2012,08,24,09,32,17.00
2012,08,24,09,33,17.00
2012,08,24,09,34,17.10
2012,08,24,09,35,17.10
2012,08,24,09,36,17.10
2012,08,24,09,37,17.10
2012,08,24,09,38,17.10
2012,08,24,09,39,17.20
2012,08,24,09,40,17.20
2012,08,24,09,41,17.30
2012,08,24,09,42,17.30
2012,08,24,09,43,17.30
2012,08,24,09,44,17.30
2012,08,24,09,45,17.30
2012,08,24,09,46,17.30
2012,08,24,09,47,17.30
2012,08,24,09,48,17.30
2012,08,24,09,49,17.40
2012,08,24,09,50,17.40
2012,08,24,09,51,17.40
2012,08,24,09,52,17.50
2012,08,24,09,53,17.50
2012,08,24,09,54,17.60
2012,08,24,09,55,17.60
2012,08,24,09,56,17.70
2012,08,24,09,57,17.80
2012,08,24,09,58,17.80
2012,08,24,09,59,17.80
2012,08,24,10,00,17.80
2012,08,24,10,01,17.80
2012,08,24,10,02,17.70
2012,08,24,10,03,17.70
2012,08,24,10,04,17.70
2012,08,24,10,05,17.70
2012,08,24,10,06,17.60
2012,08,24,10,07,17.60
2012,08,24,10,08,17.60
2012,08,24,10,09,17.60
2012,08,24,10,10,17.70
2012,08,24,10,11,17.70
2012,08,24,10,12,17.70
2012,08,24,10,13,17.70
2012,08,24,10,14,17.70
2012,08,24,10,15,17.70
2012,08,24,10,16,17.80
2012,08,24,10,17,17.80
2012,08,24,10,18,17.90
2012,08,24,10,19,18.10
2012,08,24,10,20,18.20
2012,08,24,10,21,18.20
2012,08,24,10,22,18.20
2012,08,24,10,23,18.20
2012,08,24,10,24,18.20
2012,08,24,10,25,18.20
2012,08,24,10,26,18.30
2012,08,24,10,27,18.30
2012,08,24,10,28,18.40
2012,08,24,10,29,18.40
2012,08,24,10,30,18.40
2012,08,24,10,31,18.50
2012,08,24,10,32,18.50
2012,08,24,10,33,18.60
2012,08,24,10,34,18.60
2012,08,24,10,35,18.60
2012,08,24,10,36,18.70
2012,08,24,10,37,18.80
2012,08,24,10,38,18.80
2012,08,24,10,39,18.90
2012,08,24,10,40,19.00
2012,08,24,10,41,19.00
2012,08,24,10,42,19.10
2012,08,24,10,43,19.10
2012,08,24,10,44,19.10
2012,08,24,10,45,19.10
2012,08,24,10,46,19.10
2012,08,24,10,47,19.00
2012,08,24,10,48,18.90
2012,08,24,10,49,18.90
2012,08,24,10,50,18.80
2012,08,24,10,51,18.80
2012,08,24,10,52,18.80
2012,08,24,10,53,18.80
2012,08,24,10,54,18.80
2012,08,24,10,55,18.70
2012,08,24,10,56,18.70
2012,08,24,10,57,18.60
2012,08,24,10,58,18.50
2012,08,24,10,59,18.40
2012,08,24,11,00,18.40
2012,08,24,11,01,18.50
2012,08,24,11,02,18.60
2012,08,24,11,03,18.70
2012,08,24,11,04,18.70
2012,08,24,11,05,18.70
2012,08,24,11,06,18.70
2012,08,24,11,07,18.70
2012,08,24,11,08,18.80
2012,08,24,11,09,18.70
2012,08,24,11,10,18.70
2012,08,24,11,11,18.70
2012,08,24,11,12,18.70
2012,08,24,11,13,18.70
2012,08,24,11,14,18.80
2012,08,24,11,15,18.70
2012,08,24,11,16,18.60
2012,08,24,11,17,18.50
2012,08,24,11,18,18.40
2012,08,24,11,19,18.30
2012,08,24,11,20,18.20
2012,08,24,11,21,18.20
2012,08,24,11,22,18.20
2012,08,24,11,23,18.20
2012,08,24,11,24,18.20
2012,08,24,11,25,18.20
2012,08,24,11,26,18.20
2012,08,24,11,27,18.30
2012,08,24,11,28,18.30
2012,08,24,11,29,18.40
2012,08,24,11,30,18.40
2012,08,24,11,31,18.30
2012,08,24,11,32,18.30
2012,08,24,11,33,18.30
2012,08,24,11,34,18.30
2012,08,24,11,35,18.40
2012,08,24,11,36,18.40
2012,08,24,11,37,18.50
2012,08,24,11,38,18.60
2012,08,24,11,39,18.60
2012,08,24,11,40,18.70
2012,08,24,11,41,18.70
2012,08,24,11,42,18.80
2012,08,24,11,43,18.80
2012,08,24,11,44,18.90
2012,08,24,11,45,18.80
2012,08,24,11,46,18.70
2012,08,24,11,47,18.50
2012,08,24,11,48,18.40
2012,08,24,11,49,18.20
2012,08,24,11,50,18.10
2012,08,24,11,51,17.90
2012,08,24,11,52,17.80
2012,08,24,11,53,17.70
2012,08,24,11,54,17.70
2012,08,24,11,55,17.70
2012,08,24,11,56,17.80
2012,08,24,11,57,17.80
2012,08,24,11,58,17.90
2012,08,24,11,59,18.00
2012,08,24,12,00,18.10
2012,08,24,12,01,18.20
2012,08,24,12,02,18.30
2012,08,24,12,03,18.40
2012,08,24,12,04,18.40
2012,08,24,12,05,18.50
2012,08,24,12,06,18.60
2012,08,24,12,07,18.60
2012,08,24,12,08,18.60
2012,08,24,12,09,18.50
2012,08,24,12,10,18.50
2012,08,24,12,11,18.40
2012,08,24,12,12,18.40
2012,08,24,12,13,18.30
2012,08,24,12,14,18.30
2012,08,24,12,15,18.30
2012,08,24,12,16,18.30
2012,08,24,12,17,18.40
2012,08,24,12,18,18.50
2012,08,24,12,19,18.70
2012,08,24,12,20,18.70
2012,08,24,12,21,18.70
2012,08,24,12,22,18.70
2012,08,24,12,23,18.80
2012,08,24,12,24,18.80
2012,08,24,12,25,18.80
2012,08,24,12,26,18.70
2012,08,24,12,27,18.70
2012,08,24,12,28,18.60
2012,08,24,12,29,18.50
2012,08,24,12,30,18.50
2012,08,24,12,31,18.40
2012,08,24,12,32,18.30
2012,08,24,12,33,18.40
2012,08,24,12,34,18.40
2012,08,24,12,35,18.30
2012,08,24,12,36,18.20
2012,08,24,12,37,18.20
2012,08,24,12,38,18.20
2012,08,24,12,39,18.20
2012,08,24,12,40,18.10
2012,08,24,12,41,18.10
2012,08,24,12,42,18.10
2012,08,24,12,43,18.10
2012,08,24,12,44,18.10
2012,08,24,12,45,18.20
2012,08,24,12,46,18.20
2012,08,24,12,47,18.10
2012,08,24,12,48,18.00
2012,08,24,12,49,17.90
2012,08,24,12,50,17.80
2012,08,24,12,51,17.70
2012,08,24,12,52,17.70
2012,08,24,12,53,17.80
2012,08,24,12,54,17.90
2012,08,24,12,55,17.90
2012,08,24,12,56,17.80
2012,08,24,12,57,17.80
2012,08,24,12,58,17.80
2012,08,24,12,59,17.80
2012,08,24,13,00,17.80
2012,08,24,13,01,17.90
2012,08,24,13,02,17.90
2012,08,24,13,03,18.00
2012,08,24,13,04,18.00
2012,08,24,13,05,18.10
2012,08,24,13,06,18.30
2012,08,24,13,07,18.30
2012,08,24,13,08,18.40
2012,08,24,13,09,18.30
2012,08,24,13,10,18.30
2012,08,24,13,11,18.20
2012,08,24,13,12,18.20
2012,08,24,13,13,18.20
2012,08,24,13,14,18.20
2012,08,24,13,15,18.20
2012,08,24,13,16,18.30
2012,08,24,13,17,18.30
2012,08,24,13,18,18.40
2012,08,24,13,19,18.40
2012,08,24,13,20,18.50
2012,08,24,13,21,18.50
2012,08,24,13,22,18.60
2012,08,24,13,23,18.70
2012,08,24,13,24,18.70
2012,08,24,13,25,18.80
2012,08,24,13,26,18.90
2012,08,24,13,27,18.90
2012,08,24,13,28,19.00
2012,08,24,13,29,19.10
2012,08,24,13,30,19.20
2012,08,24,13,31,19.20
2012,08,24,13,32,19.20
2012,08,24,13,33,19.20
2012,08,24,13,34,19.20
2012,08,24,13,35,19.20
2012,08,24,13,36,19.10
2012,08,24,13,37,19.00
2012,08,24,13,38,18.90
2012,08,24,13,39,18.80
2012,08,24,13,40,18.80
2012,08,24,13,41,18.80
2012,08,24,13,42,18.70
2012,08,24,13,43,18.70
2012,08,24,13,44,18.70
2012,08,24,13,45,18.60
2012,08,24,13,46,18.60
2012,08,24,13,47,18.70
2012,08,24,13,48,18.80
2012,08,24,13,49,18.90
2012,08,24,13,50,19.00
2012,08,24,13,51,19.10
2012,08,24,13,52,19.20
2012,08,24,13,53,19.30
2012,08,24,13,54,19.50
2012,08,24,13,55,19.60
2012,08,24,13,56,19.80
2012,08,24,13,57,19.80
2012,08,24,13,58,19.80
2012,08,24,13,59,19.70
2012,08,24,14,00,19.70
2012,08,24,14,01,19.60
2012,08,24,14,02,19.60
2012,08,24,14,03,19.60
2012,08,24,14,04,19.60
2012,08,24,14,05,19.60
2012,08,24,14,06,19.60
2012,08,24,14,07,19.60
2012,08,24,14,08,19.60
2012,08,24,14,09,19.60
2012,08,24,14,10,19.50
2012,08,24,14,11,19.60
2012,08,24,14,12,19.60
2012,08,24,14,13,19.60
2012,08,24,14,14,19.60
2012,08,24,14,15,19.70
2012,08,24,14,16,19.70
2012,08,24,14,17,19.80
2012,08,24,14,18,19.80
2012,08,24,14,19,19.80
2012,08,24,14,20,19.80
2012,08,24,14,21,19.90
2012,08,24,14,22,19.90
2012,08,24,14,23,19.90
2012,08,24,14,24,19.90
2012,08,24,14,25,20.00
2012,08,24,14,26,19.90
2012,08,24,14,27,19.90
2012,08,24,14,28,19.90
2012,08,24,14,29,19.80
2012,08,24,14,30,19.80
2012,08,24,14,31,19.70
2012,08,24,14,32,19.70
2012,08,24,14,33,19.70
2012,08,24,14,34,19.60
2012,08,24,14,35,19.60
2012,08,24,14,36,19.60
2012,08,24,14,37,19.60
2012,08,24,14,38,19.70
2012,08,24,14,39,19.70
2012,08,24,14,40,19.80
2012,08,24,14,41,19.80
2012,08,24,14,42,19.70
2012,08,24,14,43,19.70
2012,08,24,14,44,19.70
2012,08,24,14,45,19.60
2012,08,24,14,46,19.60
2012,08,24,14,47,19.60
2012,08,24,14,48,19.40
2012,08,24,14,49,19.30
2012,08,24,14,50,19.20
2012,08,24,14,51,19.10
2012,08,24,14,52,19.10
2012,08,24,14,53,19.10
2012,08,24,14,54,19.20
2012,08,24,14,55,19.30
2012,08,24,14,56,19.50
2012,08,24,14,57,19.70
2012,08,24,14,58,19.80
2012,08,24,14,59,19.90
2012,08,24,15,00,19.90
2012,08,24,15,01,19.80
2012,08,24,15,02,19.80
2012,08,24,15,03,19.80
2012,08,24,15,04,19.80
2012,08,24,15,05,19.70
2012,08,24,15,06,19.50
2012,08,24,15,07,19.50
2012,08,24,15,08,19.30
2012,08,24,15,09,19.30
2012,08,24,15,10,19.30
2012,08,24,15,11,19.30
2012,08,24,15,12,19.30
2012,08,24,15,13,19.30
2012,08,24,15,14,19.40
2012,08,24,15,15,19.50
2012,08,24,15,16,19.70
2012,08,24,15,17,19.70
2012,08,24,15,18,19.80
2012,08,24,15,19,19.80
2012,08,24,15,20,19.90
2012,08,24,15,21,20.00
2012,08,24,15,22,20.10
2012,08,24,15,23,20.20
2012,08,24,15,24,20.20
2012,08,24,15,25,20.20
2012,08,24,15,26,20.30
2012,08,24,15,27,20.30
2012,08,24,15,28,20.30
2012,08,24,15,29,20.30
2012,08,24,15,30,20.30
2012,08,24,15,31,20.30
2012,08,24,15,32,20.30
2012,08,24,15,33,20.30
2012,08,24,15,34,20.30
2012,08,24,15,35,20.20
2012,08,24,15,36,20.20
2012,08,24,15,37,20.20
2012,08,24,15,38,20.20
2012,08,24,15,39,20.20
2012,08,24,15,40,20.20
2012,08,24,15,41,20.20
2012,08,24,15,42,20.20
2012,08,24,15,43,20.20
2012,08,24,15,44,20.20
2012,08,24,15,45,20.20
2012,08,24,15,46,20.20
2012,08,24,15,47,20.10
2012,08,24,15,48,20.10
2012,08,24,15,49,20.10
2012,08,24,15,50,20.20
2012,08,24,15,51,20.20
2012,08,24,15,52,20.20
2012,08,24,15,53,20.00
2012,08,24,15,54,19.90
2012,08,24,15,55,19.80
2012,08,24,15,56,19.70
2012,08,24,15,57,19.70
2012,08,24,15,58,19.70
2012,08,24,15,59,19.70
2012,08,24,16,00,19.70
2012,08,24,16,01,19.70
2012,08,24,16,02,19.70
2012,08,24,16,03,19.70
2012,08,24,16,04,19.80
2012,08,24,16,05,19.80
2012,08,24,16,06,19.80
2012,08,24,16,07,19.80
2012,08,24,16,08,19.80
2012,08,24,16,09,19.80
2012,08,24,16,10,19.80
2012,08,24,16,11,19.70
2012,08,24,16,12,19.70
2012,08,24,16,13,19.60
2012,08,24,16,14,19.50
2012,08,24,16,15,19.40
2012,08,24,16,16,19.30
2012,08,24,16,17,19.30
2012,08,24,16,18,19.30
2012,08,24,16,19,19.30
2012,08,24,16,20,19.40
2012,08,24,16,21,19.40
2012,08,24,16,22,19.50
2012,08,24,16,23,19.50
2012,08,24,16,24,19.60
2012,08,24,16,25,19.60
2012,08,24,16,26,19.60
2012,08,24,16,27,19.60
2012,08,24,16,28,19.50
2012,08,24,16,29,19.50
2012,08,24,16,30,19.50
2012,08,24,16,31,19.50
2012,08,24,16,32,19.50
2012,08,24,16,33,19.50
2012,08,24,16,34,19.40
2012,08,24,16,35,19.40
2012,08,24,16,36,19.40
2012,08,24,16,37,19.20
2012,08,24,16,38,19.10
2012,08,24,16,39,19.00
2012,08,24,16,40,19.00
2012,08,24,16,41,18.90
2012,08,24,16,42,18.80
2012,08,24,16,43,18.80
2012,08,24,16,44,18.80
2012,08,24,16,45,18.90
2012,08,24,16,46,18.90
2012,08,24,16,47,19.00
2012,08,24,16,48,19.10
2012,08,24,16,49,19.20
2012,08,24,16,50,19.20
2012,08,24,16,51,19.20
2012,08,24,16,52,19.20
2012,08,24,16,53,19.20
2012,08,24,16,54,19.20
2012,08,24,16,55,19.20
2012,08,24,16,56,19.20
2012,08,24,16,57,19.10
2012,08,24,16,58,19.10
2012,08,24,16,59,19.20
2012,08,24,17,00,19.20
2012,08,24,17,01,19.20
2012,08,24,17,02,19.20
2012,08,24,17,03,19.20
2012,08,24,17,04,19.30
2012,08,24,17,05,19.30
2012,08,24,17,06,19.30
2012,08,24,17,07,19.30
2012,08,24,17,08,19.30
2012,08,24,17,09,19.30
2012,08,24,17,10,19.20
2012,08,24,17,11,19.20
2012,08,24,17,12,19.20
2012,08,24,17,13,19.30
2012,08,24,17,14,19.30
2012,08,24,17,15,19.40
2012,08,24,17,16,19.40
2012,08,24,17,17,19.50
2012,08,24,17,18,19.60
2012,08,24,17,19,19.60
2012,08,24,17,20,19.60
2012,08,24,17,21,19.60